Regional Weather Roundup
Issued by NWS

Home | Current Version | Previous Version | Text Only | Print | Product List | Glossary Off
Versions: 1 2 3 4 5 6 7 8 9 10 11 12 13 14 15 16 17 18 19 20 21 22 23 24 25 26 27 28 29 30 31 32 33 34 35 36 37 38 39 40 41 42 43 44 45 46 47 48 49 50

000
ASUS43 KMKX 140210
RWRWI

WISCONSIN REGIONAL WEATHER ROUNDUP
NATIONAL WEATHER SERVICE MILWAUKEE/SULLIVAN WI
800 PM CST SAT FEB 13 2016

NOTE: "FAIR" INDICATES FEW OR NO CLOUDS BELOW 12,000 FEET WITH NO
SIGNIFICANT WEATHER AND/OR OBSTRUCTIONS TO VISIBILITY.

WIZ001-002-006>008-014>016-023>028-140300-
NORTHWEST WISCONSIN

CITY           SKY/WX    TMP DP  RH WIND       PRES   REMARKS
SUPERIOR ARPT  PTCLDY    -1 -11  61 S6        30.40F WCI -12
ASHLAND        CLOUDY    -6 -14  68 S5        30.42F WCI -17
HAYWARD        CLOUDY    -7 -16  65 CALM      30.38F
SIREN          CLOUDY     0 -13  53 S5        30.40F WCI -10
CUMBERLAND     CLOUDY    -4 -17  54 SE3       30.37F
RICE LAKE      CLOUDY    -3 -13  61 SE3       30.41F
CHETEK         CLOUDY    -3 -12  65 CALM      30.41F
LADYSMITH      CLOUDY    -3 -12  65 S3        30.42S
EAU CLAIRE     CLOUDY    -3 -14  59 NE3       30.42F
MENOMONIE      CLOUDY     0 -13  54 NE5       30.42F WCI -10
NEW RICHMOND   CLOUDY     0 -12  55 E5        30.39F WCI -10
OSCEOLA        CLOUDY     2 -10  57 SE5       30.42F WCI  -7
$$

WIZ003>005-009-010-017-018-140300-
NORTH CENTRAL WISCONSIN

CITY           SKY/WX    TMP DP  RH WIND       PRES   REMARKS
MANITOWISH WTR CLOUDY   -10 -14  82 CALM      30.34F
ARBOR VITAE    CLOUDY    -4 -10  73 CALM      30.35F
WOODRUFF       CLOUDY    -4 -10  73 CALM      30.35F
RHINELANDER    CLOUDY    -7 -14  71 CALM      30.36S
EAGLE RIVER    CLOUDY    -8 -14  72 CALM      30.34S
LAND O LAKES   CLOUDY   -10 -14  82 CALM      30.35S
PHILLIPS       CLOUDY    -6 -14  70 CALM      30.36F
TOMAHAWK       CLOUDY    -9 -15  72 CALM      30.38S
MEDFORD        CLOUDY    -7 -13  75 CALM      30.38R
MERRILL        CLOUDY    -4 -11  72 CALM      30.41S
$$

WIZ029-030-035-036-043>047-140300-
CENTRAL WISCONSIN

CITY           SKY/WX    TMP DP  RH WIND       PRES   REMARKS
WAUSAU         CLOUDY    -1 -10  65 CALM      30.41S
MOSINEE        CLEAR      0 -11  60 CALM      30.42S
MARSHFIELD     CLOUDY     0 -12  57 E3        30.39S
STEVENS POINT  CLOUDY    -6 -14  68 CALM      30.44S
WAUPACA        PTCLDY     2 -10  56 CALM      30.47R
WAUTOMA        PTCLDY    -4 -14  62 CALM      30.47S
WISC RAPIDS    CLOUDY    -1 -12  59 CALM      30.45S
CAMP DOUGLAS   CLOUDY    -4 -11  72 CALM      30.43F
$$

WIZ011>013-019>022-031-037>040-048>050-140300-
NORTHEAST WISCONSIN

CITY           SKY/WX    TMP DP  RH WIND       PRES   REMARKS
ANTIGO         CLOUDY    -7 -15  68 W3        30.38S
SHAWANO        CLOUDY     8  -7  49 W3        30.45F
OCONTO         CLEAR      4  -8  57 CALM      30.46F
STURGEON BAY   CLEAR      3  -8  60 S6        30.47F WCI  -8
GREEN BAY      CLOUDY     3  -8  60 SW5       30.46F WCI  -6
MANITOWOC      CLEAR      2  -7  66 W3        30.48F
APPLETON       PTCLDY     3 -11  51 VRB5      30.43F WCI  -6
CLINTONVILLE   CLOUDY     1  -9  60 SW6       30.46S WCI -10
OSHKOSH        CLOUDY     2  -9  60 S5        30.46S WCI  -8
$$

WIZ032>034-041-042-053>061-140300-
SOUTHWEST WISCONSIN

CITY           SKY/WX    TMP DP  RH WIND       PRES   REMARKS
LA CROSSE      CLOUDY     5  -8  55 SE5       30.46F WCI  -4
SPARTA         CLOUDY    -3 -11  69 CALM      30.45F
VIROQUA        CLOUDY     3 -12  49 CALM      30.39F
BOSCOBEL       CLOUDY     2  -8  63 CALM      30.47F
PRAIRIE DU CHI CLOUDY     7  -7  53 E5        30.46F WCI  -2
PLATTEVILLE    CLOUDY     6  -5  60 E5        30.43F WCI  -3
$$

WIZ056-057-062-063-064-067-068-140300-
SOUTH CENTRAL WISCONSIN

CITY           SKY/WX    TMP DP  RH WIND       PRES   REMARKS
REEDSBURG      CLOUDY     2 -10  57 CALM      30.45S
BARABOO/DELLS  CLOUDY     1 -11  57 CALM      30.44F
LONE ROCK      CLOUDY     5  -8  55 E3        30.47F
MINERAL POINT  CLOUDY     9  -8  47 CALM      30.42F
MADISON        CLOUDY     5  -6  60 CALM      30.46F
MIDDLETON      CLOUDY     3  -4  72 CALM      30.46S
WATERTOWN      CLOUDY     2  -4  74 CALM      30.46F
MONROE         CLOUDY    10  -6  48 CALM      30.43F
JANESVILLE     CLEAR     10  -2  56 CALM      30.47F
$$

WIZ051-052-058>065-066-070>072-140300-
SOUTHEAST WISCONSIN

CITY           SKY/WX    TMP DP  RH WIND       PRES   REMARKS
MILWAUKEE      PTCLDY     8  -7  50 NW3       30.49F
WAUKESHA       CLEAR      1  -8  66 CALM      30.48F
MILWAUKEE/TIMM CLEAR      7  -8  51 CALM      30.49F
RACINE         CLEAR      7  -7  52 N3        30.50F
BURLINGTON     CLOUDY     3  -6  66 CALM      30.47F
KENOSHA        CLEAR      8  -5  55 N5        30.48F WCI   0
FOND DU LAC    CLOUDY    -2  -9  72 CALM      30.46F
SHEBOYGAN      CLEAR      3  -6  66 SW6       30.47F WCI  -8
WEST BEND      CLOUDY     1  -6  71 CALM      30.46F
JUNEAU         CLOUDY     4  -7  61 S3        30.47S
$$

LSZ147-162-140300-
LAKE SUPERIOR

STATION/POSITION TIME  TEMP    WIND        PRES    WAVE
                       AIR SEA DIR/SP/G            HT/PER
                 (UTC) (F)     (DEG/KT/KT) (MB)    (FT/S)
DEVILS ISLAND    0100    7     170/  6/  7 1032.6F
SAXON HARBOR     0100   -3                 1030.5S
$$

LMZ867-665-643>646-140300-
LAKE MICHIGAN

STATION/POSITION TIME  TEMP    WIND        PRES    WAVE
                       AIR SEA DIR/SP/G            HT/PER
                 (UTC) (F)     (DEG/KT/KT) (MB)    (FT/S)
CHAMBERS ISLAND  0100    8     170/  3/  7 1031.5S
SISTER BAY       0120    7     230/  6/  8   N/A
ALGOMA LAKESHORE 0141             CALM       N/A
KEWAUNEE LAKESHO 0100    8     260/  7/ 10 1031.3F
SHEBOYGAN LAKESH 0200    8     250/  8/  9 1034.2F
PORT WASHINGTON  0100    8     280/  3/  4 1033.5F
MILWAUKEE LAKESH 0110   10     300/  5/  6   N/A
KENOSHA   LAKESH 0200   12     330/  5/  7 1032.2F
$$

TC  - TEMPERATURE IN CELSIUS
VSB - VISIBILITY IN STATUTE MILES
WCI - WIND CHILL INDEX
HX  - HEAT INDEX




USA.gov is the U.S. government's official web portal to all federal, state and local government web resources and services.